,,,PA_Meas_PMT16A,,PR_Meas_QMR101_102,,RH_Meas_QMH101,,SR_Meas_QMS101,,TA_Meas_QMH101,,GenWind,,GenWind,
date,time,status,PA,status,PR,status,RH,status,SR,status,TA,status,DirAvg,status,SpdAvg,
2008-11-10, 00:00:05,VALID,1003.76,VALID,0,VALID,94.5829,VALID,0,VALID,24.8911,VALID,30,VALID,0,
2008-11-10, 00:01:05,VALID,1003.76,VALID,0,VALID,94.56,VALID,0,VALID,24.8503,VALID,30,VALID,0,
2008-11-10, 00:02:05,VALID,1003.78,VALID,0,VALID,94.5676,VALID,0,VALID,24.8911,VALID,30,VALID,0.138281,
2008-11-10, 00:03:05,VALID,1003.8,VALID,0,VALID,94.621,VALID,0,VALID,24.9106,VALID,88,VALID,0.366016,
2008-11-10, 00:04:05,VALID,1003.81,VALID,0,VALID,94.5371,VALID,0,VALID,24.93,VALID,89,VALID,0,
2008-11-10, 00:05:05,VALID,1003.82,VALID,0,VALID,94.621,VALID,0,VALID,24.9671,VALID,138,VALID,0.864844,
2008-11-10, 00:06:05,VALID,1003.78,VALID,0,VALID,94.6515,VALID,0,VALID,25.0274,VALID,141,VALID,0.672656,
2008-11-10, 00:07:05,VALID,1003.79,VALID,0,VALID,94.5523,VALID,0,VALID,25.0469,VALID,141,VALID,0.680469,
2008-11-10, 00:08:05,VALID,1003.77,VALID,0,VALID,94.4532,VALID,0,VALID,25.0274,VALID,141,VALID,0.410937,
2008-11-10, 00:09:05,VALID,1003.75,VALID,0,VALID,94.4913,VALID,0,VALID,25.0274,VALID,141,VALID,0.0277344,
2008-11-10, 00:10:05,VALID,1003.69,VALID,0,VALID,94.5676,VALID,0,VALID,25.0469,VALID,141,VALID,0,
2008-11-10, 00:11:05,VALID,1003.67,VALID,0,VALID,94.5371,VALID,0,VALID,25.0469,VALID,141,VALID,0,
2008-11-10, 00:12:05,VALID,1003.65,VALID,0,VALID,94.4913,VALID,0,VALID,25.0274,VALID,141,VALID,0.0363281,
2008-11-10, 00:13:04,VALID,1003.67,VALID,0,VALID,94.6286,VALID,0,VALID,25.0274,VALID,141,VALID,0.0554687,
2008-11-10, 00:14:04,VALID,1003.67,VALID,0,VALID,94.6286,VALID,0,VALID,25.0469,VALID,141,VALID,0,
2008-11-10, 00:15:04,VALID,1003.65,VALID,0,VALID,94.6515,VALID,0,VALID,25.045,VALID,141,VALID,0,
2008-11-10, 00:16:04,VALID,1003.66,VALID,0,VALID,94.6286,VALID,0,VALID,25.0858,VALID,141,VALID,0,
2008-11-10, 00:17:04,VALID,1003.66,VALID,0,VALID,94.5676,VALID,0,VALID,25.0663,VALID,141,VALID,0,
2008-11-10, 00:18:04,VALID,1003.66,VALID,0,VALID,94.5829,VALID,0,VALID,25.0663,VALID,53,VALID,0.261328,
2008-11-10, 00:19:04,VALID,1003.59,VALID,0,VALID,94.5523,VALID,0,VALID,25.0663,VALID,51,VALID,0.413281,
2008-11-10, 00:20:04,VALID,1003.56,VALID,0,VALID,94.5295,VALID,0,VALID,25.0663,VALID,40,VALID,0.387109,
2008-11-10, 00:21:04,VALID,1003.52,VALID,0,VALID,94.5752,VALID,0,VALID,25.0858,VALID,40,VALID,0.0046875,
2008-11-10, 00:22:04,VALID,1003.45,VALID,0,VALID,94.5676,VALID,0,VALID,25.1053,VALID,38,VALID,0.00195313,
2008-11-10, 00:23:04,VALID,1003.41,VALID,0,VALID,94.5752,VALID,0,VALID,25.1053,VALID,320,VALID,0.117578,
2008-11-10, 00:24:04,VALID,1003.41,VALID,0,VALID,94.4227,VALID,0,VALID,25.0858,VALID,2,VALID,1.05898,
2008-11-10, 00:25:04,VALID,1003.37,VALID,0,VALID,94.354,VALID,0,VALID,25.0663,VALID,354,VALID,0.803125,
2008-11-10, 00:26:04,VALID,1003.39,VALID,0,VALID,94.3769,VALID,0,VALID,25.0469,VALID,1,VALID,0.911328,
2008-11-10, 00:27:04,VALID,1003.35,VALID,0,VALID,94.3769,VALID,0,VALID,25.0274,VALID,7,VALID,0.514844,
2008-11-10, 00:28:04,VALID,1003.33,VALID,0,VALID,94.3921,VALID,0,VALID,24.9885,VALID,19,VALID,0.0734375,
2008-11-10, 00:29:04,VALID,1003.28,VALID,0,VALID,94.3311,VALID,0,VALID,24.969,VALID,19,VALID,0.375,
2008-11-10, 00:30:04,VALID,1003.25,VALID,0,VALID,94.3387,VALID,0,VALID,24.9087,VALID,19,VALID,0.208203,
2008-11-10, 00:31:04,VALID,1003.17,VALID,0,VALID,94.3998,VALID,0,VALID,24.9106,VALID,19,VALID,0,
2008-11-10, 00:32:04,VALID,1003.18,VALID,0,VALID,94.4074,VALID,0,VALID,24.8892,VALID,19,VALID,0,
2008-11-10, 00:33:04,VALID,1003.15,VALID,0,VALID,94.3921,VALID,0,VALID,24.893,VALID,19,VALID,0,
2008-11-10, 00:34:04,VALID,1003.15,VALID,0,VALID,94.4608,VALID,0,VALID,24.8716,VALID,19,VALID,0,
2008-11-10, 00:35:04,VALID,1003.13,VALID,0,VALID,94.4761,VALID,0,VALID,24.8522,VALID,19,VALID,0,
2008-11-10, 00:36:04,VALID,1003.11,VALID,0,VALID,94.5142,VALID,0,VALID,24.8716,VALID,19,VALID,0,
2008-11-10, 00:37:04,VALID,1003.11,VALID,0,VALID,94.5752,VALID,0,VALID,24.8735,VALID,19,VALID,0.121875,
2008-11-10, 00:38:04,VALID,1003.13,VALID,0,VALID,94.5295,VALID,0,VALID,24.8308,VALID,19,VALID,0,
2008-11-10, 00:39:04,VALID,1003.12,VALID,0,VALID,94.5829,VALID,0,VALID,24.8522,VALID,19,VALID,0.453906,
2008-11-10, 00:40:04,VALID,1003.09,VALID,0,VALID,94.56,VALID,0,VALID,24.8327,VALID,19,VALID,0.631641,
2008-11-10, 00:41:04,VALID,1003.1,VALID,0,VALID,94.5676,VALID,0,VALID,24.7724,VALID,205,VALID,0.913672,
2008-11-10, 00:42:04,VALID,1003.08,VALID,0,VALID,94.5829,VALID,0,VALID,24.7743,VALID,205,VALID,0.689062,
2008-11-10, 00:43:04,VALID,1003.05,VALID,0,VALID,94.6057,VALID,0,VALID,24.7743,VALID,209,VALID,0.516406,
2008-11-10, 00:44:04,VALID,1003.03,VALID,0,VALID,94.621,VALID,0,VALID,24.7353,VALID,209,VALID,0.190625,
2008-11-10, 00:45:04,VALID,1002.97,VALID,0,VALID,94.6515,VALID,0,VALID,24.7353,VALID,209,VALID,0.0621094,
2008-11-10, 00:46:04,VALID,1002.98,VALID,0,VALID,94.6897,VALID,0,VALID,24.7159,VALID,209,VALID,0.296484,
2008-11-10, 00:47:04,VALID,1002.95,VALID,0,VALID,94.7507,VALID,0,VALID,24.7353,VALID,209,VALID,0.0621094,
2008-11-10, 00:48:04,VALID,1002.95,VALID,0,VALID,94.766,VALID,0,VALID,24.7548,VALID,209,VALID,0.383984,
2008-11-10, 00:49:04,VALID,1002.93,VALID,0,VALID,94.7736,VALID,0,VALID,24.7353,VALID,209,VALID,0.433203,
2008-11-10, 00:50:04,VALID,1002.9,VALID,0,VALID,94.7049,VALID,0,VALID,24.7372,VALID,227,VALID,0.524219,
2008-11-10, 00:51:04,VALID,1002.89,VALID,0,VALID,94.6744,VALID,0,VALID,24.6556,VALID,279,VALID,0.356641,
2008-11-10, 00:52:04,VALID,1002.89,VALID,0,VALID,94.6668,VALID,0,VALID,24.6574,VALID,279,VALID,0.351172,
2008-11-10, 00:53:04,VALID,1002.85,VALID,0,VALID,94.7202,VALID,0,VALID,24.638,VALID,279,VALID,0.415625,
2008-11-10, 00:54:04,VALID,1002.85,VALID,0,VALID,94.766,VALID,0,VALID,24.638,VALID,279,VALID,0.466406,
2008-11-10, 00:55:04,VALID,1002.84,VALID,0,VALID,94.7354,VALID,0,VALID,24.5796,VALID,279,VALID,0.463672,
2008-11-10, 00:56:04,VALID,1002.83,VALID,0,VALID,94.7888,VALID,0,VALID,24.6009,VALID,279,VALID,0.43125,
2008-11-10, 00:57:04,VALID,1002.84,VALID,0,VALID,94.7965,VALID,0.100563,VALID,24.5601,VALID,279,VALID,0.428906,
2008-11-10, 00:58:04,VALID,1002.85,VALID,0,VALID,94.827,VALID,0,VALID,24.5601,VALID,279,VALID,0.298438,
2008-11-10, 00:59:04,VALID,1002.9,VALID,0,VALID,94.8651,VALID,0,VALID,24.5601,VALID,279,VALID,0.200781,
2008-11-10, 01:00:04,VALID,1002.94,VALID,0,VALID,94.888,VALID,0,VALID,24.5193,VALID,279,VALID,0.107031,
2008-11-10, 01:01:04,VALID,1002.94,VALID,0,VALID,94.8728,VALID,0,VALID,24.5193,VALID,279,VALID,0.0933594,
2008-11-10, 01:02:04,VALID,1002.95,VALID,0,VALID,94.888,VALID,0,VALID,24.5212,VALID,279,VALID,0.126953,
2008-11-10, 01:03:04,VALID,1002.91,VALID,0,VALID,94.8804,VALID,0,VALID,24.523,VALID,279,VALID,0.0894531,
2008-11-10, 01:04:04,VALID,1002.92,VALID,0,VALID,94.888,VALID,0,VALID,24.5017,VALID,279,VALID,0,
2008-11-10, 01:05:04,VALID,1002.93,VALID,0,VALID,94.9033,VALID,0,VALID,24.5017,VALID,279,VALID,0.135547,
2008-11-10, 01:06:04,VALID,1002.93,VALID,0,VALID,94.9185,VALID,0,VALID,24.4822,VALID,279,VALID,0.140625,
2008-11-10, 01:07:04,VALID,1002.94,VALID,0,VALID,94.9262,VALID,0.100563,VALID,24.4822,VALID,279,VALID,0.250781,
2008-11-10, 01:08:04,VALID,1002.96,VALID,0,VALID,94.9338,VALID,0,VALID,24.4628,VALID,279,VALID,0.0910156,
2008-11-10, 01:09:04,VALID,1002.98,VALID,0,VALID,94.949,VALID,0,VALID,24.4628,VALID,279,VALID,0,
2008-11-10, 01:10:04,VALID,1002.97,VALID,0,VALID,94.9262,VALID,0,VALID,24.4433,VALID,279,VALID,0.0015625,
2008-11-10, 01:11:04,VALID,1002.95,VALID,0,VALID,94.9262,VALID,0.100563,VALID,24.4238,VALID,279,VALID,0.208594,
2008-11-10, 01:12:04,VALID,1002.95,VALID,0,VALID,94.9872,VALID,0,VALID,24.4238,VALID,279,VALID,0.159766,
2008-11-10, 01:13:04,VALID,1002.94,VALID,0,VALID,95.0253,VALID,0,VALID,24.4433,VALID,279,VALID,0.0882813,
2008-11-10, 01:14:04,VALID,1002.92,VALID,0,VALID,95.0711,VALID,0,VALID,24.4628,VALID,279,VALID,0.253906,
2008-11-10, 01:15:04,VALID,1002.83,VALID,0,VALID,95.1169,VALID,0,VALID,24.4841,VALID,279,VALID,0.248437,
2008-11-10, 01:16:04,VALID,1002.77,VALID,0,VALID,95.1093,VALID,0.100563,VALID,24.4822,VALID,279,VALID,0,
2008-11-10, 01:17:04,VALID,1002.73,VALID,0,VALID,95.0864,VALID,0,VALID,24.4822,VALID,279,VALID,0,
2008-11-10, 01:18:04,VALID,1002.66,VALID,0,VALID,95.1245,VALID,0,VALID,24.4822,VALID,279,VALID,0.23125,
2008-11-10, 01:19:04,VALID,1002.59,VALID,0,VALID,95.1093,VALID,0,VALID,24.5017,VALID,279,VALID,0.50625,
2008-11-10, 01:20:04,VALID,1002.53,VALID,0,VALID,95.1093,VALID,0,VALID,24.4822,VALID,1,VALID,0.830078,
2008-11-10, 01:21:04,VALID,1002.47,VALID,0,VALID,95.0558,VALID,0,VALID,24.4433,VALID,16,VALID,1.00898,
2008-11-10, 01:22:04,VALID,1002.4,VALID,0,VALID,94.9948,VALID,0,VALID,24.4238,VALID,17,VALID,0.794531,
2008-11-10, 01:23:04,VALID,1002.32,VALID,0,VALID,94.8651,VALID,0,VALID,24.3459,VALID,6,VALID,0.795313,
2008-11-10, 01:24:04,VALID,1002.25,VALID,0,VALID,94.9109,VALID,0,VALID,24.3265,VALID,5,VALID,0.707031,
2008-11-10, 01:25:04,VALID,1002.19,VALID,0,VALID,95.0177,VALID,0,VALID,24.2875,VALID,2,VALID,0.586328,
2008-11-10, 01:26:04,VALID,1002.16,VALID,0,VALID,95.0558,VALID,0,VALID,24.2875,VALID,345,VALID,0.666797,
2008-11-10, 01:27:04,VALID,1002.14,VALID,0,VALID,95.0711,VALID,0,VALID,24.2681,VALID,350,VALID,0.459375,
2008-11-10, 01:28:04,VALID,1002.13,VALID,0,VALID,95.1016,VALID,0,VALID,24.2681,VALID,348,VALID,0.291016,
2008-11-10, 01:29:04,VALID,1002.17,VALID,0,VALID,95.1474,VALID,0,VALID,24.2894,VALID,343,VALID,0.177734,
2008-11-10, 01:30:04,VALID,1002.22,VALID,0,VALID,95.155,VALID,0,VALID,24.2681,VALID,343,VALID,0.104297,
2008-11-10, 01:31:04,VALID,1002.28,VALID,0,VALID,95.1855,VALID,0,VALID,24.2681,VALID,343,VALID,0,
2008-11-10, 01:32:04,VALID,1002.3,VALID,0,VALID,95.2389,VALID,0,VALID,24.2875,VALID,341,VALID,0.215625,
2008-11-10, 01:33:04,VALID,1002.37,VALID,0,VALID,95.2847,VALID,0,VALID,24.3052,VALID,341,VALID,0,
2008-11-10, 01:34:04,VALID,1002.4,VALID,0,VALID,95.3229,VALID,0,VALID,24.3654,VALID,281,VALID,0.432422,
2008-11-10, 01:35:04,VALID,1002.43,VALID,0,VALID,95.2923,VALID,0,VALID,24.3654,VALID,205,VALID,0.646875,
2008-11-10, 01:36:04,VALID,1002.43,VALID,0,VALID,95.2466,VALID,0,VALID,24.3459,VALID,186,VALID,0.546875,
2008-11-10, 01:37:04,VALID,1002.44,VALID,0,VALID,95.2008,VALID,0,VALID,24.3459,VALID,185,VALID,0.350781,
2008-11-10, 01:38:04,VALID,1002.42,VALID,0,VALID,95.1932,VALID,0,VALID,24.3265,VALID,185,VALID,0.365625,
2008-11-10, 01:39:04,VALID,1002.42,VALID,0,VALID,95.2008,VALID,0,VALID,24.3265,VALID,185,VALID,0.449219,
2008-11-10, 01:40:04,VALID,1002.46,VALID,0,VALID,95.2389,VALID,0,VALID,24.3265,VALID,185,VALID,0.0734375,
2008-11-10, 01:41:04,VALID,1002.47,VALID,0,VALID,95.2466,VALID,0,VALID,24.3459,VALID,185,VALID,0,
2008-11-10, 01:42:04,VALID,1002.45,VALID,0,VALID,95.2389,VALID,0,VALID,24.3459,VALID,185,VALID,0.0640625,
2008-11-10, 01:43:04,VALID,1002.41,VALID,0,VALID,95.2389,VALID,0,VALID,24.3265,VALID,78,VALID,0.443359,
2008-11-10, 01:44:04,VALID,1002.41,VALID,0,VALID,95.1932,VALID,0,VALID,24.2875,VALID,51,VALID,0.522656,
2008-11-10, 01:45:04,VALID,1002.4,VALID,0,VALID,95.1398,VALID,0,VALID,24.2468,VALID,50,VALID,0.378906,
2008-11-10, 01:46:04,VALID,1002.35,VALID,0,VALID,95.1932,VALID,0,VALID,24.2486,VALID,46,VALID,0.545703,
2008-11-10, 01:47:04,VALID,1002.36,VALID,0,VALID,95.2161,VALID,0,VALID,24.2486,VALID,41,VALID,0.376172,
2008-11-10, 01:48:04,VALID,1002.34,VALID,0,VALID,95.2542,VALID,0,VALID,24.2681,VALID,41,VALID,0.351172,
2008-11-10, 01:49:04,VALID,1002.37,VALID,0,VALID,95.2618,VALID,0,VALID,24.2681,VALID,39,VALID,0.336328,
2008-11-10, 01:50:04,VALID,1002.34,VALID,0,VALID,95.2389,VALID,0,VALID,24.2486,VALID,39,VALID,0.24375,
2008-11-10, 01:51:04,VALID,1002.35,VALID,0,VALID,95.3,VALID,0,VALID,24.2681,VALID,39,VALID,0.448828,
2008-11-10, 01:52:04,VALID,1002.37,VALID,0,VALID,95.3381,VALID,0,VALID,24.2681,VALID,39,VALID,0.411328,
2008-11-10, 01:53:04,VALID,1002.38,VALID,0,VALID,95.3229,VALID,0,VALID,24.2875,VALID,39,VALID,0.046875,
2008-11-10, 01:54:04,VALID,1002.36,VALID,0,VALID,95.3381,VALID,0,VALID,24.2468,VALID,39,VALID,0,
2008-11-10, 01:55:04,VALID,1002.37,VALID,0,VALID,95.3,VALID,0,VALID,24.2681,VALID,39,VALID,0,
2008-11-10, 01:56:04,VALID,1002.32,VALID,0,VALID,95.2771,VALID,0,VALID,24.2875,VALID,39,VALID,0,
2008-11-10, 01:57:04,VALID,1002.31,VALID,0,VALID,95.2923,VALID,0.100563,VALID,24.2681,VALID,39,VALID,0.275781,
2008-11-10, 01:58:04,VALID,1002.29,VALID,0,VALID,95.2847,VALID,0,VALID,24.2468,VALID,39,VALID,0.126172,
2008-11-10, 01:59:04,VALID,1002.28,VALID,0,VALID,95.3305,VALID,0,VALID,24.2875,VALID,39,VALID,0.0210938,
2008-11-10, 02:00:04,VALID,1002.27,VALID,0,VALID,95.3457,VALID,0,VALID,24.2875,VALID,39,VALID,0,
2008-11-10, 02:01:04,VALID,1002.28,VALID,0,VALID,95.3305,VALID,0,VALID,24.2875,VALID,39,VALID,0.0148437,
2008-11-10, 02:02:04,VALID,1002.27,VALID,0,VALID,95.3152,VALID,0,VALID,24.307,VALID,39,VALID,0.186328,
2008-11-10, 02:03:04,VALID,1002.24,VALID,0,VALID,95.2923,VALID,0,VALID,24.2875,VALID,39,VALID,0,
2008-11-10, 02:04:04,VALID,1002.27,VALID,0,VALID,95.2923,VALID,0,VALID,24.2681,VALID,39,VALID,0.216016,
2008-11-10, 02:05:04,VALID,1002.26,VALID,0,VALID,95.2923,VALID,0.100563,VALID,24.2662,VALID,39,VALID,0.0046875,
2008-11-10, 02:06:04,VALID,1002.29,VALID,0,VALID,95.2466,VALID,0.100563,VALID,24.2468,VALID,39,VALID,0,
2008-11-10, 02:07:04,VALID,1002.27,VALID,0,VALID,95.2695,VALID,0,VALID,24.2486,VALID,39,VALID,0,
2008-11-10, 02:08:04,VALID,1002.26,VALID,0,VALID,95.2466,VALID,0,VALID,24.2486,VALID,39,VALID,0.00429688,
2008-11-10, 02:09:04,VALID,1002.21,VALID,0,VALID,95.2771,VALID,0,VALID,24.2291,VALID,39,VALID,0.112891,
2008-11-10, 02:10:04,VALID,1002.2,VALID,0,VALID,95.2771,VALID,0,VALID,24.2097,VALID,39,VALID,0.00585938,
2008-11-10, 02:11:04,VALID,1002.2,VALID,0,VALID,95.2847,VALID,0,VALID,24.2291,VALID,39,VALID,0.163281,
2008-11-10, 02:12:04,VALID,1002.12,VALID,0,VALID,95.2923,VALID,0,VALID,24.2097,VALID,39,VALID,0.273438,
2008-11-10, 02:13:04,VALID,1002.14,VALID,0,VALID,95.3457,VALID,0,VALID,24.2291,VALID,39,VALID,0.382031,
2008-11-10, 02:14:04,VALID,1002.17,VALID,0,VALID,95.3305,VALID,0,VALID,24.2291,VALID,39,VALID,0.217969,
2008-11-10, 02:15:04,VALID,1002.15,VALID,0,VALID,95.3229,VALID,0,VALID,24.231,VALID,39,VALID,0.370313,
2008-11-10, 02:16:04,VALID,1002.17,VALID,0,VALID,95.3534,VALID,0,VALID,24.231,VALID,39,VALID,0.267969,
2008-11-10, 02:17:04,VALID,1002.19,VALID,0,VALID,95.3534,VALID,0,VALID,24.2291,VALID,39,VALID,0.0632813,
2008-11-10, 02:18:04,VALID,1002.25,VALID,0,VALID,95.3152,VALID,0,VALID,24.2097,VALID,39,VALID,0.00195313,
2008-11-10, 02:19:04,VALID,1002.27,VALID,0,VALID,95.3152,VALID,0,VALID,24.2097,VALID,39,VALID,0.283203,
2008-11-10, 02:20:04,VALID,1002.27,VALID,0,VALID,95.3381,VALID,0,VALID,24.2115,VALID,39,VALID,0.428125,
2008-11-10, 02:21:04,VALID,1002.26,VALID,0,VALID,95.3381,VALID,0,VALID,24.1494,VALID,39,VALID,0.339844,
2008-11-10, 02:22:04,VALID,1002.25,VALID,0,VALID,95.3534,VALID,0,VALID,24.1902,VALID,39,VALID,0.136719,
2008-11-10, 02:23:04,VALID,1002.2,VALID,0,VALID,95.3763,VALID,0,VALID,24.2097,VALID,39,VALID,0.135937,
2008-11-10, 02:24:04,VALID,1002.19,VALID,0,VALID,95.4297,VALID,0,VALID,24.2097,VALID,39,VALID,0,
2008-11-10, 02:25:04,VALID,1002.16,VALID,0,VALID,95.4373,VALID,0,VALID,24.2486,VALID,39,VALID,0.219531,
2008-11-10, 02:26:04,VALID,1002.1,VALID,0,VALID,95.4831,VALID,0,VALID,24.2681,VALID,39,VALID,0.214062,
2008-11-10, 02:27:04,VALID,1002.07,VALID,0,VALID,95.4754,VALID,0,VALID,24.2875,VALID,39,VALID,0.106641,
2008-11-10, 02:28:04,VALID,1002.06,VALID,0,VALID,95.4678,VALID,0,VALID,24.2875,VALID,39,VALID,0,
2008-11-10, 02:29:04,VALID,1002.08,VALID,0,VALID,95.4907,VALID,0,VALID,24.3265,VALID,39,VALID,0,
2008-11-10, 02:30:04,VALID,1002.11,VALID,0,VALID,95.4831,VALID,0,VALID,24.3265,VALID,40,VALID,0.236719,
2008-11-10, 02:31:04,VALID,1002.09,VALID,0,VALID,95.4449,VALID,0,VALID,24.307,VALID,80,VALID,0.670703,
2008-11-10, 02:32:04,VALID,1002.08,VALID,0,VALID,95.4373,VALID,0,VALID,24.3283,VALID,71,VALID,0.520703,
2008-11-10, 02:33:04,VALID,1002.06,VALID,0,VALID,95.506,VALID,0,VALID,24.3478,VALID,63,VALID,0.925391,
2008-11-10, 02:34:04,VALID,1002.06,VALID,0,VALID,95.5365,VALID,0,VALID,24.4043,VALID,98,VALID,0.831641,
2008-11-10, 02:35:04,VALID,1002.1,VALID,0,VALID,95.5136,VALID,0,VALID,24.4646,VALID,119,VALID,0.558203,
2008-11-10, 02:36:04,VALID,1002.12,VALID,0,VALID,95.4678,VALID,0,VALID,24.5035,VALID,135,VALID,0.970312,
2008-11-10, 02:37:04,VALID,1002.17,VALID,0,VALID,95.4602,VALID,0,VALID,24.523,VALID,123,VALID,0.976563,
2008-11-10, 02:38:04,VALID,1002.26,VALID,0,VALID,95.4068,VALID,0,VALID,24.5212,VALID,119,VALID,0.812891,
2008-11-10, 02:39:04,VALID,1002.28,VALID,0,VALID,95.3457,VALID,0,VALID,24.5406,VALID,110,VALID,1.01523,
2008-11-10, 02:40:04,VALID,1002.34,VALID,0,VALID,95.3305,VALID,0,VALID,24.5796,VALID,105,VALID,0.823438,
2008-11-10, 02:41:04,VALID,1002.37,VALID,0,VALID,95.2847,VALID,0,VALID,24.6185,VALID,93,VALID,1.57344,
2008-11-10, 02:42:04,VALID,1002.41,VALID,0,VALID,95.1932,VALID,0,VALID,24.6769,VALID,115,VALID,1.01953,
2008-11-10, 02:43:04,VALID,1002.45,VALID,0,VALID,95.1321,VALID,0,VALID,24.7177,VALID,105,VALID,0.829687,
2008-11-10, 02:44:04,VALID,1002.47,VALID,0,VALID,95.0864,VALID,0,VALID,24.7353,VALID,93,VALID,0.923437,
2008-11-10, 02:45:04,VALID,1002.44,VALID,0,VALID,95.0101,VALID,0.100563,VALID,24.7548,VALID,87,VALID,0.490234,
2008-11-10, 02:46:04,VALID,1002.45,VALID,0,VALID,94.9719,VALID,0,VALID,24.7937,VALID,86,VALID,0.566406,
2008-11-10, 02:47:04,VALID,1002.46,VALID,0,VALID,94.9185,VALID,0,VALID,24.7529,VALID,91,VALID,0.870703,
2008-11-10, 02:48:04,VALID,1002.47,VALID,0,VALID,94.8422,VALID,0,VALID,24.8132,VALID,113,VALID,0.783203,
2008-11-10, 02:49:04,VALID,1002.46,VALID,0,VALID,94.7354,VALID,0,VALID,24.8132,VALID,79,VALID,0.654688,
2008-11-10, 02:50:04,VALID,1002.5,VALID,0,VALID,94.6897,VALID,0,VALID,24.8327,VALID,101,VALID,0.622656,
2008-11-10, 02:51:04,VALID,1002.52,VALID,0,VALID,94.6057,VALID,0,VALID,24.8522,VALID,96,VALID,0.527734,
2008-11-10, 02:52:04,VALID,1002.5,VALID,0,VALID,94.5523,VALID,0,VALID,24.8716,VALID,105,VALID,0.583594,
2008-11-10, 02:53:04,VALID,1002.52,VALID,0,VALID,94.4989,VALID,0,VALID,24.8716,VALID,139,VALID,1.58789,
2008-11-10, 02:54:04,VALID,1002.53,VALID,0,VALID,94.4684,VALID,0,VALID,24.8892,VALID,118,VALID,1.23203,
2008-11-10, 02:55:04,VALID,1002.56,VALID,0,VALID,94.3769,VALID,0,VALID,24.9106,VALID,110,VALID,1.46719,
2008-11-10, 02:56:04,VALID,1002.57,VALID,0.5,VALID,94.3464,VALID,0,VALID,24.8911,VALID,133,VALID,1.97305,
2008-11-10, 02:57:04,VALID,1002.49,VALID,0.5,VALID,94.3692,VALID,0,VALID,24.8522,VALID,125,VALID,1.65,
2008-11-10, 02:58:04,VALID,1002.45,VALID,0.5,VALID,94.5295,VALID,0,VALID,24.8132,VALID,153,VALID,1.97383,
2008-11-10, 02:59:04,VALID,1002.41,VALID,0.5,VALID,94.6744,VALID,0,VALID,24.7548,VALID,128,VALID,1.94336,
2008-11-10, 03:00:04,VALID,1002.42,VALID,0.5,VALID,94.7888,VALID,0,VALID,24.7353,VALID,129,VALID,1.48359,
2008-11-10, 03:01:04,VALID,1002.4,VALID,0,VALID,94.8499,VALID,0,VALID,24.6964,VALID,125,VALID,2.20313,
2008-11-10, 03:02:04,VALID,1002.37,VALID,0,VALID,94.888,VALID,0,VALID,24.6574,VALID,77,VALID,1.73125,
2008-11-10, 03:03:04,VALID,1002.31,VALID,0.5,VALID,94.9414,VALID,0,VALID,24.6185,VALID,103,VALID,1.44297,
2008-11-10, 03:04:04,VALID,1002.28,VALID,0,VALID,95.0024,VALID,0,VALID,24.5796,VALID,110,VALID,1.93477,
2008-11-10, 03:05:04,VALID,1002.27,VALID,0,VALID,95.0406,VALID,0,VALID,24.5796,VALID,96,VALID,1.33867,
2008-11-10, 03:06:04,VALID,1002.27,VALID,0,VALID,95.1016,VALID,0,VALID,24.5406,VALID,104,VALID,0.769141,
2008-11-10, 03:07:04,VALID,1002.27,VALID,0,VALID,95.1169,VALID,0,VALID,24.5425,VALID,105,VALID,0.742188,
2008-11-10, 03:08:04,VALID,1002.25,VALID,0,VALID,95.1779,VALID,0,VALID,24.5017,VALID,73,VALID,1.02383,
2008-11-10, 03:09:04,VALID,1002.21,VALID,0,VALID,95.0482,VALID,0,VALID,24.4433,VALID,107,VALID,1.79609,
2008-11-10, 03:10:04,VALID,1002.13,VALID,0,VALID,95.0101,VALID,0,VALID,24.3654,VALID,87,VALID,1.58008,
2008-11-10, 03:11:04,VALID,1002.11,VALID,0,VALID,95.0253,VALID,0,VALID,24.307,VALID,112,VALID,0.980859,
2008-11-10, 03:12:04,VALID,1002.04,VALID,0,VALID,95.0711,VALID,0,VALID,24.2681,VALID,95,VALID,0.934375,
2008-11-10, 03:13:04,VALID,1001.98,VALID,0.5,VALID,95.155,VALID,0,VALID,24.2681,VALID,88,VALID,0.855469,
2008-11-10, 03:14:04,VALID,1001.96,VALID,0,VALID,95.1855,VALID,0,VALID,24.2486,VALID,93,VALID,0.919141,
2008-11-10, 03:15:04,VALID,1001.9,VALID,0,VALID,95.2008,VALID,0.100563,VALID,24.2291,VALID,74,VALID,0.909375,
2008-11-10, 03:16:04,VALID,1001.84,VALID,0,VALID,95.2237,VALID,0,VALID,24.2097,VALID,78,VALID,0.718359,
2008-11-10, 03:17:04,VALID,1001.77,VALID,0,VALID,95.2771,VALID,0,VALID,24.2504,VALID,63,VALID,0.390625,
2008-11-10, 03:18:04,VALID,1001.73,VALID,0,VALID,95.2923,VALID,0,VALID,24.2097,VALID,52,VALID,0.440625,
2008-11-10, 03:19:04,VALID,1001.66,VALID,0,VALID,95.3152,VALID,0,VALID,24.2097,VALID,58,VALID,0.448438,
2008-11-10, 03:20:04,VALID,1001.58,VALID,0,VALID,95.3305,VALID,0,VALID,24.1902,VALID,55,VALID,0.523828,
2008-11-10, 03:21:04,VALID,1001.54,VALID,0,VALID,95.361,VALID,0,VALID,24.1902,VALID,55,VALID,0.046875,
2008-11-10, 03:22:04,VALID,1001.51,VALID,0,VALID,95.3991,VALID,0,VALID,24.1902,VALID,55,VALID,0,
2008-11-10, 03:23:04,VALID,1001.48,VALID,0,VALID,95.422,VALID,0,VALID,24.1902,VALID,55,VALID,0.164453,
2008-11-10, 03:24:04,VALID,1001.47,VALID,0,VALID,95.4907,VALID,0,VALID,24.2115,VALID,17,VALID,0.262891,
2008-11-10, 03:25:04,VALID,1001.53,VALID,0,VALID,95.5212,VALID,0,VALID,24.2291,VALID,17,VALID,0.000390625,
2008-11-10, 03:26:04,VALID,1001.53,VALID,0,VALID,95.4907,VALID,0,VALID,24.2291,VALID,17,VALID,0.290234,
2008-11-10, 03:27:04,VALID,1001.58,VALID,0,VALID,95.5212,VALID,0,VALID,24.2486,VALID,17,VALID,0.111719,
2008-11-10, 03:28:04,VALID,1001.57,VALID,0,VALID,95.5288,VALID,0,VALID,24.2486,VALID,17,VALID,0,
2008-11-10, 03:29:04,VALID,1001.59,VALID,0,VALID,95.5288,VALID,0,VALID,24.2291,VALID,17,VALID,0,
2008-11-10, 03:30:04,VALID,1001.59,VALID,0,VALID,95.5365,VALID,0,VALID,24.2699,VALID,45,VALID,0.457422,
2008-11-10, 03:31:04,VALID,1001.58,VALID,0,VALID,95.5288,VALID,0,VALID,24.2291,VALID,86,VALID,0.519531,
2008-11-10, 03:32:04,VALID,1001.56,VALID,0.5,VALID,95.5441,VALID,0,VALID,24.2291,VALID,86,VALID,0.429297,
2008-11-10, 03:33:04,VALID,1001.52,VALID,0,VALID,95.5365,VALID,0,VALID,24.2097,VALID,86,VALID,0.107422,
2008-11-10, 03:34:04,VALID,1001.52,VALID,0,VALID,95.5594,VALID,0,VALID,24.2097,VALID,86,VALID,0.206641,
2008-11-10, 03:35:04,VALID,1001.51,VALID,0,VALID,95.5441,VALID,0,VALID,24.2097,VALID,57,VALID,0.504297,
2008-11-10, 03:36:04,VALID,1001.54,VALID,0,VALID,95.5746,VALID,0,VALID,24.1902,VALID,57,VALID,0.0113281,
2008-11-10, 03:37:04,VALID,1001.55,VALID,0,VALID,95.6051,VALID,0,VALID,24.1902,VALID,57,VALID,0.0730469,
2008-11-10, 03:38:04,VALID,1001.61,VALID,0,VALID,95.6204,VALID,0,VALID,24.1902,VALID,57,VALID,0.00898437,
2008-11-10, 03:39:04,VALID,1001.62,VALID,0,VALID,95.628,VALID,0,VALID,24.2097,VALID,57,VALID,0.240234,
2008-11-10, 03:40:04,VALID,1001.67,VALID,0,VALID,95.5822,VALID,0,VALID,24.1902,VALID,313,VALID,0.264062,
2008-11-10, 03:41:04,VALID,1001.7,VALID,0,VALID,95.6051,VALID,0,VALID,24.1707,VALID,313,VALID,0,
2008-11-10, 03:42:04,VALID,1001.71,VALID,0,VALID,95.6128,VALID,0,VALID,24.1707,VALID,313,VALID,0,
2008-11-10, 03:43:04,VALID,1001.76,VALID,0,VALID,95.6356,VALID,0,VALID,24.1707,VALID,313,VALID,0,
2008-11-10, 03:44:04,VALID,1001.78,VALID,0,VALID,95.628,VALID,0,VALID,24.1707,VALID,313,VALID,0,
2008-11-10, 03:45:04,VALID,1001.81,VALID,0,VALID,95.6433,VALID,0,VALID,24.1707,VALID,313,VALID,0,
2008-11-10, 03:46:04,VALID,1001.82,VALID,0,VALID,95.628,VALID,0,VALID,24.1707,VALID,313,VALID,0,
2008-11-10, 03:47:04,VALID,1001.81,VALID,0,VALID,95.6509,VALID,0.100563,VALID,24.1513,VALID,313,VALID,0.0679687,